Location: Greenhawk Observatory
(37.3417°N, 122.0298°W)
Time: 03:08:05
(UTC-07:00)

Daily predictions for brighter satellites

Satellite Brightness Start Highest point End
(mag) Time Altitude Azimuth Time Altitude Azimuth Time Altitude Azimuth
ATLAS 5 CENTAUR R/B 4.3 03:30:34 25° E 03:30:34 25° E 03:33:47 10° ESE
Lacrosse 5 4.0 03:54:26 22° NE 03:54:26 22° NE 03:56:12 10° NE
CZ-2D R/B 4.3 03:46:02 10° NNE 03:47:31 20° NNE 03:47:31 20° NNE
NOSS 3-2 (A) 4.1 03:56:36 71° ENE 03:56:36 71° ENE 04:04:24 10° SE
Cosmos 2227 Rocket 3.5 04:03:30 36° NNE 04:03:30 36° NNE 04:06:48 10° NNE
Resurs 1-4 Rocket 4.0 04:04:34 10° N 04:06:22 22° N 04:06:22 22° N
Cosmos 2297 Rocket 3.0 04:11:35 46° NE 04:11:35 46° NE 04:15:42 10° NNE
USA 215 3.3 04:10:33 10° SE 04:16:18 71° ESE 04:16:18 71° ESE
Okean O Rocket 3.3 04:19:02 10° NNE 04:21:33 30° NE 04:21:33 30° NE
DELTA 2 R/B (1) 4.2 04:25:15 53° E 04:25:15 53° E 04:29:32 10° ENE
NOSS 3-2 (C) 3.9 04:28:02 10° NW 04:35:41 84° WSW 04:43:50 10° SSE
Cosmos 1892 Rocket 4.4 04:39:22 49° E 04:39:22 49° E 04:43:28 10° NNE
Cosmos 2082 4.3 04:44:22 42° NNW 04:44:22 42° NNW 04:48:29 10° NNE
Cosmos 2100 Rocket 4.3 04:46:23 10° N 04:52:36 66° E 04:58:51 10° SSE
PAYLOAD B 4.2 04:48:05 10° NNE 04:53:37 82° ESE 04:55:22 46° S
Tiangong 1 3.7 04:56:05 18° NE 04:56:05 18° NE 04:57:12 10° ENE
Cosmos 2061 Rocket 4.4 04:49:28 10° N 04:55:45 63° E 05:02:04 10° SSE
NOSS 3-4 (A) 4.2 04:57:23 36° NW 04:57:23 36° NW 05:03:21 10° NNE
NOSS 3-4 (C) 4.2 04:57:28 36° NW 04:57:29 36° NW 05:03:28 10° NNE
ADEOS II 3.1 04:58:17 10° NNE 05:03:21 46° E 05:08:23 10° S
CZ-2C R/B 3.6 05:04:18 74° WNW 05:04:18 74° WNW 05:08:39 10° NNW
CZ-4B R/B 3.0 05:06:47 10° N 05:11:14 70° WNW 05:11:26 68° W
ATLAS 5 CENTAUR R/B 2.6 05:12:19 45° W 05:12:58 47° WSW 05:19:10 10° S
CZ-4B R/B 3.1 05:09:40 10° N 05:15:04 68° WNW 05:17:28 34° SW
Cosmos 1000 Rocket 4.4 05:12:34 10° S 05:18:54 81° W 05:25:15 10° N
Okean 2 3.6 05:22:22 49° NW 05:22:22 49° NW 05:25:58 10° N
Cosmos 292 Rocket 3.7 05:17:19 10° NNW 05:22:06 58° WSW 05:26:51 10° S
Cosmos 2058 Rocket 2.9 05:19:55 10° NNW 05:24:16 73° W 05:28:36 10° S
Meteor 2-4 Rocket 4.0 05:22:23 36° SW 05:24:20 49° WNW 05:30:05 10° N
Cosmos 2298 Rocket 4.1 05:23:05 40° WSW 05:24:40 56° WNW 05:29:54 10° N
Cosmos 2016 Rocket 4.1 05:18:53 10° N 05:25:15 80° E 05:31:30 10° S
MOS 1 Rocket 4.5 05:22:16 10° NNE 05:27:00 47° E 05:31:58 10° S
Aureole 2 Rocket 2.2 05:24:24 16° NNW 05:27:00 79° ENE 05:30:03 10° SSE
Cosmos 2173 Rocket 3.8 05:24:24 10° NNW 05:30:27 67° W 05:36:32 10° S
Okean-O 2.7 05:26:04 10° NNE 05:30:31 79° ESE 05:34:57 10° S
CZ-2D R/B 4.2 05:28:31 10° NW 05:28:51 11° NW 05:28:51 11° NW
Cosmos 990 Rocket 4.0 05:26:39 10° SSW 05:31:51 84° ESE 05:37:08 10° NNE
USA 116 4.5 05:26:48 10° SSE 05:31:52 71° ENE 05:36:29 10° N
Lacrosse 5 3.5 05:33:39 17° NW 05:34:44 18° NNW 05:38:14 10° NNE
Cosmos 967 Rocket 4.4 05:29:48 17° SSW 05:34:58 85° WNW 05:41:26 10° NNE
Cosmos 1459 Rocket 4.0 05:29:57 10° NNW 05:36:11 59° W 05:42:19 10° S
COBE Rocket 4.4 05:31:50 10° NNE 05:36:31 56° E 05:41:04 10° S
SL-16 R/B 2.2 05:30:59 10° NNW 05:36:33 57° WSW 05:42:04 10° S
Thor Agena Rocket 3.5 05:31:22 10° S 05:36:38 69° WSW 05:41:55 10° NNW
FALCON 9 R/B 3.9 05:32:05 22° SW 05:36:45 59° SSE 06:00:21 10° E
Cosmos 2150 Rocket 4.2 05:36:17 30° WSW 05:38:25 47° WNW 05:43:23 10° N
Meteor 2-9 Rocket 4.4 05:33:52 10° NNW 05:39:19 48° W 05:44:51 10° SSW
Cosmos 2123 Rocket 4.0 05:35:52 10° S 05:42:02 85° E 05:48:15 10° N
Cosmos 2227 Rocket 3.8 05:45:21 16° WNW 05:45:47 16° NW 05:49:09 10° NNW
Meteor 2-15 4.4 05:40:43 10° SSW 05:46:42 65° W 05:52:43 10° N
Cosmos 1174 4.2 05:46:32 10° NNW 05:49:30 48° ENE 05:52:50 10° SE
Cosmos 1626 Rocket 3.4 05:45:17 10° SSW 05:49:39 75° W 05:54:01 10° N
Cosmos 2297 Rocket 3.6 05:53:26 17° WNW 05:54:37 18° NW 05:58:27 10° N
OAO 2 Rocket 3.7 05:54:00 20° WSW 05:57:34 60° S 06:02:49 10° E
Okean O Rocket 3.3 05:56:44 10° NNW 05:59:01 15° WNW 05:59:01 15° WNW
USA 215 4.3 05:55:42 10° S 06:00:32 22° WSW 06:03:43 16° W
Cosmos 1864 Rocket 4.5 05:54:28 10° N 06:00:51 82° W 06:07:12 10° S
Delta 2 Rocket 3.9 06:01:15 21° WSW 06:03:11 34° SSW 06:06:27 10° SE
Cosmos 2098 Rocket 3.5 05:59:55 10° NNW 06:03:58 46° W 06:09:05 10° SSW
ADEOS Rocket 3.8 06:03:22 10° N 06:09:40 37° WNW 06:15:23 10° SW
Cosmos 1125 Rocket 3.8 06:04:33 10° S 06:09:42 71° ESE 06:14:53 10° NNE
DELTA 2 R/B (1) 3.7 06:06:02 16° W 06:10:33 70° N 06:16:08 10° E
Cosmos 1602 Rocket 4.0 06:09:41 10° SSW 06:13:50 39° W 06:17:59 10° N
Cosmos 1937 Rocket 4.4 06:09:40 11° WSW 06:13:53 29° WNW 06:18:29 10° N
CENTAUR R/B 3.2 06:09:24 10° NW 06:17:17 64° WSW 06:25:29 10° SSE
Cosmos 1943 4.2 06:12:47 10° NNW 06:18:16 50° ENE 06:23:41 10° SE
NOSS 2-2 (D) 4.4 06:18:12 12° WSW 06:21:39 32° NW 06:25:53 10° NNE
Genesis I 4.0 06:18:22 10° WSW 06:21:57 34° NW 06:25:37 10° NNE
SKYMED 2 3.9 06:17:45 10° SSE 06:22:04 73° ENE 06:26:24 10° N
Cosmos 1603 3.7 06:18:33 10° NNW 06:24:12 62° WSW 06:29:46 10° S
Meteor 1-31 Rocket 3.4 06:23:47 10° N 06:27:23 36° WNW 06:31:00 10° SW
EXPRESS MD2 4.0 06:24:27 10° WNW 06:28:09 72° SW 06:35:57 10° SE
Cosmos 2263 Rocket 2.8 06:22:58 10° S 06:28:27 61° ESE 06:33:55 10° NNE
Cosmos 2228 4.4 06:26:37 10° NW 06:29:34 18° W 06:32:30 10° SW
NOAA 6 4.1 06:25:27 10° N 06:30:34 60° WNW 06:35:39 10° SSW
Tiangong 1 2.1 06:28:29 10° WNW 06:31:20 36° NNE 06:34:12 10° E
Cosmos 2233 Rocket 4.0 06:25:58 10° N 06:32:13 74° W 06:38:22 10° S
Cosmos 2084 Rocket 3.7 06:34:33 10° NNW 06:38:27 66° NE 06:42:32 10° SE
Cosmos 1812 Rocket 4.2 06:37:02 10° NNW 06:41:02 33° W 06:45:02 10° SSW
Iridium 4 Rocket 3.3 06:36:54 10° S 06:41:50 82° W 06:46:22 10° N
